Lid_Strength_Index
18 19 22 21 19 19 19 20 20 19 17 19 19 19 17 16 16 17 17 17 17 17 16 15 14 14 14 14 15 15 15 15 14 15 15 16 16 15 15 15 14 14 15 15
19 21 20 19 18 18 19 20 21 19 18 19 20 20 18 16 17 17 17 17 17 18 17 16 15 15 15 15 15 15 15 15 14 15 15 15 15 15 15 14 14 14 14 13
21 20 19 19 20 19 20 20 20 20 18 19 19 20 20 18 18 18 18 17 17 17 17 17 15 15 14 15 14 14 13 13 13 13 14 14 13 13 13 13 12 11 11 11
22 20 19 20 20 20 20 19 18 18 20 24 20 23 21 19 20 19 17 18 18 17 17 17 16 15 15 14 15 14 13 13 13 12 12 13 13 14 13 12 12 12 11 11
23 23 21 21 20 19 20 18 19 18 21 23 23 26 21 20 19 18 18 17 18 17 17 17 17 16 15 15 15 15 14 13 13 13 13 13 13 13 13 13 12 12 12 11
23 22 22 21 19 18 18 20 20 21 22 28 26 25 21 21 19 18 17 17 17 17 17 16 16 16 16 15 15 15 15 14 13 13 13 13 13 13 13 13 13 12 12 12
22 23 22 21 21 19 19 22 27 26 28 26 24 26 20 19 19 18 17 17 17 17 17 17 17 17 16 16 16 15 15 14 14 14 13 13 13 13 13 13 13 13 13 13
25 23 23 21 23 22 21 23 25 30 28 27 26 26 19 18 18 18 17 17 17 17 17 16 16 16 16 16 16 15 15 15 14 14 14 13 13 13 13 13 13 13 13 13
26 24 23 21 22 22 23 24 24 32 40 31 26 23 20 19 19 19 19 18 18 18 17 16 16 16 16 16 16 16 15 15 14 14 14 14 14 14 14 14 14 14 13 13
22 25 23 23 22 22 23 22 25 28 29 30 26 27 21 19 18 19 19 18 17 17 17 17 16 16 15 15 15 16 15 15 15 14 14 14 14 14 14 14 14 14 14 14
22 23 25 23 25 25 25 25 26 26 27 29 30 23 20 19 17 18 18 18 17 16 17 17 16 15 15 15 15 15 15 15 15 14 14 14 14 14 14 14 14 14 14 14
20 24 29 25 26 24 24 24 24 25 27 29 28 24 19 18 18 18 17 17 17 16 15 16 16 16 16 16 15 15 15 15 15 14 14 14 14 14 14 14 14 14 14 14
20 25 29 25 25 25 26 24 24 28 28 29 27 21 20 20 19 19 18 17 17 16 16 16 17 17 16 16 15 15 15 15 15 15 15 15 15 15 15 14 14 14 14 14
18 25 23 21 22 24 27 26 24 25 30 24 23 20 17 17 18 17 18 18 17 17 16 16 16 16 16 15 15 15 15 15 15 15 15 15 15 15 14 14 14 14 14 14
20 24 26 26 25 25 24 23 24 25 22 23 19 19 17 16 16 15 15 16 18 17 17 17 16 16 15 16 16 15 15 15 15 15 15 15 14 14 14 15 15 14 15 15
21 24 27 23 26 24 23 21 22 23 21 21 19 19 15 15 17 17 16 17 17 16 16 16 16 16 15 15 15 15 15 15 15 15 15 14 15 15 15 15 15 15 15 15
23 23 24 23 27 26 25 21 20 21 21 20 22 18 15 16 16 15 15 17 16 16 16 16 16 16 15 15 14 15 15 15 16 15 15 15 15 15 15 15 15 16 16 16
24 24 23 22 25 26 20 24 21 20 19 18 18 17 16 16 15 15 17 16 16 15 15 15 15 15 15 14 14 14 14 15 16 16 15 15 15 15 16 16 16 16 16 17
20 20 22 23 24 21 20 22 21 22 19 18 18 17 16 15 17 16 14 14 15 14 14 14 14 14 15 15 15 15 15 15 16 15 15 15 15 16 17 17 17 17 18 19
24 25 21 21 24 25 19 20 20 20 22 17 17 16 16 17 20 16 13 14 15 15 15 15 15 16 16 16 15 15 15 16 16 15 15 16 16 17 17 18 19 19 19 20
31 30 26 24 22 20 17 17 17 22 20 16 15 15 16 17 15 14 15 15 15 15 15 15 17 16 15 16 16 17 16 17 15 15 16 17 17 17 18 19 20 21 21 21
23 27 30 26 25 25 18 19 18 15 13 15 16 15 15 14 14 15 14 15 15 15 16 17 17 17 17 17 17 17 17 16 17 18 18 18 19 18 19 20 21 21 22 23
20 19 17 20 20 17 17 15 15 16 17 17 16 16 15 15 13 12 13 13 14 15 15 17 17 17 18 17 16 16 16 18 19 19 20 20 19 19 20 21 22 22 21 22
14 12 14 15 15 13 12 12 13 13 13 12 11 12 12 13 12 13 13 14 14 14 15 17 18 18 18 18 17 16 18 18 18 19 20 20 20 21 21 20 20 21 22 22
12 11 14 14 12 10 10 9 9 9 10 10 10 10 10 11 12 12 13 13 14 14 15 16 16 16 17 18 18 18 18 18 18 19 20 21 21 21 21 21 21 21 21 21
12 12 13 15 10 10 10 8 7 8 8 8 8 8 8 9 12 11 12 12 13 14 15 16 16 17 17 17 18 18 18 17 19 20 20 21 21 21 21 21 21 18 18 18